Location: Babice
(50.3480°N, 22.9363°E)
Time: 12:29:56
(UTC+00:00)

IRS-1C - Pass Details

Date: 14 July 2020
Orbit: 815 x 817 km, 98.8° (Epoch: 07 August)

Event Time Altitude Azimuth Distance (km) Brightness Sun altitude
Rises 01:09:22 0° 16° (NNE) 3,357 8.8 -10.3°
Reaches altitude 10° 01:11:43 10° 18° (NNE) 2,420 7.9 -10.1°
Maximum altitude 01:17:05 77° 105° (ESE) 842 4.3 -9.5°
Drops below altitude 10° 01:22:25 10° 191° (SSW) 2,402 6.0 -9.0°
Enters shadow 01:22:56 - 192° (SSW) 2,604 6.2 -9.0°
